When you browse on this site, cookies collect data to enhance your experience and personalize the content and advertising you see.
Visit our Privacy Policy to learn more. By continuing to use the site, you agree to this use of cookies and data.
  • în România
  • Lista ţărilor
  • Pe 7 zile
  • Temperatura apei
  • Meteo pe hartă
  • Widget-uri
  • user-avatar
    Intrare

    Meteo pe oră la Sanary-sur-Mer

    Astăzi, 22 August, Joi

    Timp Temperatura Precipitaţii Vânt Presiune Umiditate
    00:00 +24°C° 0 mm 1 m/s 750 mmHg 67%
    01:00 +24°C° 0 mm 1 m/s 750 mmHg 67%
    02:00 +24°C° 0 mm 1 m/s 750 mmHg 67%
    03:00 +23°C° 0 mm 1 m/s 749 mmHg 67%
    04:00 +24°C° 0 mm 1 m/s 749 mmHg 65%
    05:00 +24°C° 0 mm 1 m/s 750 mmHg 63%
    06:00 +25°C° 0 mm 1 m/s 750 mmHg 61%
    07:00 +26°C° 0 mm 1 m/s 750 mmHg 55%
    08:00 +28°C° 0 mm 1 m/s 750 mmHg 50%
    09:00 +29°C° 0 mm 1 m/s 751 mmHg 45%
    10:00 +30°C° 0 mm 2 m/s 751 mmHg 44%
    11:00 +31°C° 0 mm 2 m/s 751 mmHg 44%
    12:00 +31°C° 0 mm 3 m/s 751 mmHg 43%
    13:00 +31°C° 0.1 mm 3 m/s 751 mmHg 45%
    14:00 +31°C° 0.1 mm 3 m/s 750 mmHg 47%
    15:00 +31°C° 0.1 mm 2 m/s 750 mmHg 48%
    16:00 +29°C° 0.2 mm 3 m/s 750 mmHg 55%
    17:00 +28°C° 0.2 mm 3 m/s 750 mmHg 61%
    18:00 +26°C° 0.2 mm 3 m/s 750 mmHg 68%
    19:00 +25°C° 0.1 mm 2 m/s 750 mmHg 68%
    20:00 +24°C° 0.1 mm 2 m/s 751 mmHg 69%
    21:00 +23°C° 0.1 mm 1 m/s 751 mmHg 69%
    22:00 +23°C° 0 mm 2 m/s 751 mmHg 68%
    23:00 +23°C° 0 mm 2 m/s 751 mmHg 68%

    Mâine, 23 August, Vineri

    Timp Temperatura Precipitaţii Vânt Presiune Umiditate
    00:00 +23°C° 0 mm 2 m/s 750 mmHg 67%
    01:00 +23°C° 0 mm 2 m/s 750 mmHg 67%
    02:00 +23°C° 0 mm 2 m/s 750 mmHg 67%
    03:00 +23°C° 0 mm 1 m/s 750 mmHg 67%
    04:00 +23°C° 0 mm 1 m/s 750 mmHg 65%
    05:00 +24°C° 0 mm 1 m/s 750 mmHg 64%
    06:00 +24°C° 0 mm 1 m/s 750 mmHg 62%
    07:00 +27°C° 0 mm 1 m/s 750 mmHg 55%
    08:00 +29°C° 0 mm 1 m/s 751 mmHg 48%
    09:00 +32°C° 0 mm 1 m/s 751 mmHg 41%
    10:00 +32°C° 0 mm 2 m/s 751 mmHg 40%
    11:00 +32°C° 0 mm 2 m/s 751 mmHg 40%
    12:00 +34°C° 0 mm 3 m/s 750 mmHg 39%
    13:00 +32°C° 0 mm 2 m/s 750 mmHg 40%
    14:00 +32°C° 0 mm 2 m/s 750 mmHg 42%
    15:00 +32°C° 0 mm 2 m/s 750 mmHg 43%
    16:00 +30°C° 0 mm 2 m/s 750 mmHg 46%
    17:00 +29°C° 0 mm 1 m/s 749 mmHg 50%
    18:00 +28°C° 0 mm 1 m/s 749 mmHg 54%
    19:00 +25°C° 0 mm 0 m/s 750 mmHg 57%
    20:00 +24°C° 0 mm 0 m/s 750 mmHg 60%
    21:00 +23°C° 0 mm 0 m/s 750 mmHg 63%
    22:00 +25°C° 0 mm 1 m/s 750 mmHg 63%
    23:00 +25°C° 0 mm 1 m/s 750 mmHg 64%

    Poimâine, 24 August, Sâmbătă

    Timp Temperatura Precipitaţii Vânt Presiune Umiditate
    00:00 +25°C° 0 mm 1 m/s 750 mmHg 64%
    01:00 +25°C° 0 mm 1 m/s 750 mmHg 65%
    02:00 +24°C° 0 mm 1 m/s 750 mmHg 66%
    03:00 +24°C° 0 mm 1 m/s 750 mmHg 66%
    04:00 +24°C° 0 mm 1 m/s 750 mmHg 65%
    05:00 +25°C° 0 mm 1 m/s 750 mmHg 63%
    06:00 +25°C° 0 mm 1 m/s 750 mmHg 61%
    07:00 +27°C° 0 mm 1 m/s 750 mmHg 55%
    08:00 +29°C° 0 mm 1 m/s 750 mmHg 48%
    09:00 +31°C° 0 mm 1 m/s 750 mmHg 42%
    10:00 +32°C° 0 mm 1 m/s 750 mmHg 40%
    11:00 +32°C° 0 mm 2 m/s 750 mmHg 39%
    12:00 +34°C° 0 mm 2 m/s 750 mmHg 38%
    13:00 +33°C° 0 mm 3 m/s 750 mmHg 40%
    14:00 +33°C° 0 mm 3 m/s 750 mmHg 41%
    15:00 +33°C° 0 mm 3 m/s 749 mmHg 42%
    16:00 +30°C° 0 mm 3 m/s 749 mmHg 46%
    17:00 +29°C° 0 mm 2 m/s 749 mmHg 51%
    18:00 +28°C° 0 mm 2 m/s 749 mmHg 55%
    19:00 +27°C° 0 mm 2 m/s 749 mmHg 58%
    20:00 +26°C° 0 mm 2 m/s 749 mmHg 60%
    21:00 +25°C° 0 mm 2 m/s 750 mmHg 63%
    22:00 +25°C° 0 mm 2 m/s 750 mmHg 64%
    23:00 +24°C° 0 mm 2 m/s 749 mmHg 65%

    25 August, Duminică

    Timp Temperatura Precipitaţii Vânt Presiune Umiditate
    00:00 +24°C° 0 mm 2 m/s 749 mmHg 66%
    01:00 +24°C° 0 mm 2 m/s 749 mmHg 66%
    02:00 +24°C° 0 mm 2 m/s 749 mmHg 67%
    03:00 +23°C° 0 mm 2 m/s 748 mmHg 67%
    04:00 +24°C° 0 mm 2 m/s 748 mmHg 64%
    05:00 +24°C° 0 mm 2 m/s 748 mmHg 61%
    06:00 +25°C° 0 mm 2 m/s 748 mmHg 58%
    07:00 +27°C° 0 mm 2 m/s 749 mmHg 51%
    08:00 +30°C° 0 mm 2 m/s 749 mmHg 44%
    09:00 +32°C° 0 mm 2 m/s 749 mmHg 37%
    10:00 +32°C° 0 mm 2 m/s 749 mmHg 36%
    11:00 +34°C° 0 mm 3 m/s 749 mmHg 35%
    12:00 +34°C° 0 mm 3 m/s 749 mmHg 34%
    13:00 +34°C° 0 mm 3 m/s 749 mmHg 36%
    14:00 +33°C° 0 mm 3 m/s 748 mmHg 37%
    15:00 +33°C° 0 mm 3 m/s 748 mmHg 38%
    16:00 +31°C° 0 mm 3 m/s 748 mmHg 41%
    17:00 +30°C° 0 mm 2 m/s 748 mmHg 44%
    18:00 +29°C° 0 mm 2 m/s 748 mmHg 47%
    19:00 +28°C° 0 mm 2 m/s 748 mmHg 50%
    20:00 +27°C° 0 mm 2 m/s 749 mmHg 53%
    21:00 +26°C° 0 mm 2 m/s 749 mmHg 56%
    22:00 +25°C° 0 mm 2 m/s 749 mmHg 56%
    23:00 +25°C° 0 mm 2 m/s 749 mmHg 57%

    26 August, Luni

    Timp Temperatura Precipitaţii Vânt Presiune Umiditate
    00:00 +25°C° 0 mm 2 m/s 749 mmHg 57%
    01:00 +25°C° 0 mm 2 m/s 748 mmHg 58%
    02:00 +25°C° 0 mm 2 m/s 748 mmHg 58%
    03:00 +24°C° 0 mm 2 m/s 748 mmHg 59%
    04:00 +25°C° 0 mm 2 m/s 748 mmHg 57%
    05:00 +25°C° 0 mm 1 m/s 748 mmHg 56%
    06:00 +25°C° 0 mm 1 m/s 749 mmHg 54%
    07:00 +28°C° 0 mm 1 m/s 749 mmHg 48%
    08:00 +30°C° 0 mm 1 m/s 749 mmHg 42%
    09:00 +32°C° 0 mm 1 m/s 749 mmHg 36%
    10:00 +32°C° 0 mm 2 m/s 749 mmHg 36%
    11:00 +34°C° 0 mm 2 m/s 749 mmHg 36%
    12:00 +34°C° 0 mm 2 m/s 749 mmHg 36%
    13:00 +34°C° 0 mm 2 m/s 749 mmHg 36%
    14:00 +34°C° 0 mm 2 m/s 748 mmHg 37%
    15:00 +32°C° 0 mm 2 m/s 748 mmHg 38%
    16:00 +31°C° 0 mm 2 m/s 748 mmHg 42%
    17:00 +30°C° 0 mm 1 m/s 748 mmHg 46%
    18:00 +28°C° 0 mm 1 m/s 748 mmHg 50%
    19:00 +28°C° 0 mm 1 m/s 748 mmHg 52%
    20:00 +27°C° 0 mm 1 m/s 748 mmHg 54%
    21:00 +26°C° 0 mm 1 m/s 749 mmHg 56%
    22:00 +26°C° 0 mm 1 m/s 748 mmHg 58%
    23:00 +25°C° 0 mm 1 m/s 748 mmHg 60%

    27 August, Marţi

    Timp Temperatura Precipitaţii Vânt Presiune Umiditate
    00:00 +25°C° 0 mm 1 m/s 748 mmHg 61%
    01:00 +25°C° 0 mm 1 m/s 748 mmHg 62%
    02:00 +24°C° 0 mm 1 m/s 748 mmHg 63%
    03:00 +24°C° 0 mm 1 m/s 748 mmHg 63%
    04:00 +25°C° 0 mm 1 m/s 748 mmHg 62%
    05:00 +25°C° 0 mm 1 m/s 748 mmHg 60%
    06:00 +25°C° 0 mm 1 m/s 748 mmHg 59%
    07:00 +27°C° 0 mm 2 m/s 748 mmHg 55%
    08:00 +28°C° 0 mm 2 m/s 748 mmHg 50%
    09:00 +29°C° 0 mm 2 m/s 748 mmHg 46%
    10:00 +29°C° 0.1 mm 2 m/s 748 mmHg 49%
    11:00 +28°C° 0.1 mm 2 m/s 748 mmHg 51%
    12:00 +28°C° 0.1 mm 2 m/s 748 mmHg 54%
    13:00 +28°C° 0 mm 2 m/s 747 mmHg 53%
    14:00 +28°C° 0 mm 3 m/s 747 mmHg 52%
    15:00 +29°C° 0 mm 3 m/s 747 mmHg 51%
    16:00 +28°C° 0 mm 3 m/s 747 mmHg 54%
    17:00 +28°C° 0 mm 4 m/s 746 mmHg 56%
    18:00 +27°C° 0 mm 4 m/s 746 mmHg 59%
    19:00 +26°C° 0 mm 4 m/s 746 mmHg 63%
    20:00 +25°C° 0 mm 4 m/s 746 mmHg 68%
    21:00 +23°C° 0 mm 4 m/s 747 mmHg 73%
    22:00 +23°C° 1.7 mm 4 m/s 746 mmHg 76%
    23:00 +23°C° 1.7 mm 4 m/s 746 mmHg 80%
    Arată mai mult